QTR8759 OMAA-OTHH

Flight info

Callsign QTR8759
Flight time N/A
Altitude 20000
Route MEKRI P899 TOVOX
Aircraft A35K/H-SDE2E3GHIJ3J4J5LM1ORWXY/LB1D1

Departure

Time 2026-05-03 22:46
Airport Zayed International Airport (OMAA)

Arrival

Time N/A
Airport Hamad International Airport (OTHH)
Time Latitude Longitude Altitude Speed Heading
2026-05-03 22:35 24.42614 54.66888 82 ft 0 kts 38°
2026-05-03 22:40 24.42610 54.66885 87 ft 4 kts 38°
2026-05-03 22:41 24.42588 54.66867 87 ft 4 kts 38°
2026-05-03 22:41 24.42567 54.66848 86 ft 4 kts 38°
2026-05-03 22:41 24.42549 54.66832 86 ft 4 kts 59°
2026-05-03 22:41 24.42546 54.66808 86 ft 4 kts 117°
2026-05-03 22:42 24.42560 54.66785 86 ft 2 kts 123°
2026-05-03 22:42 24.42560 54.66784 86 ft 0 kts 123°
2026-05-03 22:43 24.42554 54.66794 86 ft 3 kts 123°
2026-05-03 22:44 24.42534 54.66826 87 ft 6 kts 124°
2026-05-03 22:44 24.42503 54.66872 87 ft 9 kts 128°
2026-05-03 22:44 24.42447 54.66912 86 ft 11 kts 169°
2026-05-03 22:44 24.42379 54.66882 87 ft 11 kts 217°
2026-05-03 22:45 24.42311 54.66822 85 ft 14 kts 219°
2026-05-03 22:45 24.42226 54.66750 86 ft 16 kts 216°
2026-05-03 22:45 24.42207 54.66683 83 ft 11 kts 281°
2026-05-03 22:45 24.42256 54.66598 86 ft 23 kts 308°
2026-05-03 22:46 24.42519 54.66228 89 ft 97 kts 308°
2026-05-03 22:46 24.43071 54.65451 89 ft 159 kts 308°
2026-05-03 22:46 24.43826 54.64388 464 ft 181 kts 308°
2026-05-03 22:46 24.44577 54.63329 1349 ft 172 kts 308°
2026-05-03 22:47 24.45339 54.62258 1864 ft 193 kts 308°
2026-05-03 22:47 24.46221 54.61016 2087 ft 221 kts 308°
2026-05-03 22:47 24.47222 54.59604 2343 ft 246 kts 308°
2026-05-03 22:47 24.47871 54.58689 2638 ft 254 kts 308°